1530979200.75,15823,23.31,74158.5,9.43,-8.41,-9.67,0,*7B
1530979201.97,15824,23.31,74158.5,9.43,-8.37,-9.57,0,*7E
1530979203.19,15825,23.31,74156.5,9.41,-8.45,-9.75,0,*78
1530979204.44,15826,23.31,74160.0,9.41,-8.51,-9.75,0,*7E
1530979205.65,15827,23.31,74158.8,9.43,-8.33,-9.53,0,*7D
1530979206.87,15828,23.31,74156.5,9.43,-8.29,-9.53,0,*79
1530979208.1,15829,23.38,74160.0,9.41,-8.33,-9.57,0,*75
1530979209.32,15830,23.31,74154.5,9.43,-8.33,-9.53,0,*7B
1530979210.5,15831,23.31,74156.3,9.43,-8.33,-9.67,0,*7D
1530979211.71,15832,23.38,74160.3,9.43,-8.33,-9.57,0,*7D
1530979212.93,15833,23.38,74162.0,9.43,-8.21,-9.45,0,*7C
1530979214.15,15834,23.31,74158.0,9.43,-8.21,-9.45,0,*7B
1530979215.39,15835,23.38,74162.0,9.45,-8.33,-9.53,0,*78
1530979216.6,15836,23.31,74158.5,9.45,-8.59,-9.93,0,*7B
1530979217.83,15837,23.31,74156.5,9.45,-8.71,-9.93,0,*70
1530979219.05,15838,23.31,74156.8,9.45,-8.41,-9.67,0,*77
1530979220.26,15839,23.31,74158.3,9.47,-8.37,-9.61,0,*73
1530979221.51,15840,23.31,74160.8,9.45,-8.51,-9.79,0,*76
1530979222.74,15841,23.31,74158.5,9.45,-8.85,-10.09,0,*41
1530979223.96,15842,23.31,74158.5,9.45,-8.89,-10.23,0,*46
1530979225.21,15843,23.31,74156.8,9.45,-8.51,-9.79,0,*75
1530979226.44,15844,23.38,74160.3,9.45,-8.33,-9.57,0,*7A
1530979227.63,15845,23.31,74158.0,9.47,-8.67,-9.89,0,*7B
1530979228.86,15846,23.31,74158.3,9.45,-9.01,-10.19,0,*4A
1530979230.11,15847,23.31,74158.5,9.45,-8.63,-9.83,0,*75
1530979231.3,15848,23.31,74158.5,9.47,-8.45,-9.75,0,*75
1530979232.54,15849,23.31,74154.8,9.45,-8.51,-9.79,0,*7F
1530979233.73,15850,23.31,74152.8,9.47,-8.59,-9.75,0,*71
1530979234.94,15851,23.31,74156.8,9.47,-8.37,-9.61,0,*7D
1530979236.13,15852,23.31,74156.8,9.47,-8.45,-9.67,0,*7D
1530979237.34,15853,23.31,74156.5,9.47,-8.41,-9.61,0,*7E
1530979238.56,15854,23.31,74156.0,9.47,-8.37,-9.61,0,*78
1530979239.77,15855,23.31,74158.3,9.47,-8.51,-9.75,0,*7C
1530979240.98,15856,23.31,74158.5,9.47,-8.45,-9.61,0,*7F
1530979242.2,15857,23.31,74158.0,9.47,-8.37,-9.49,0,*71
1530979243.42,15858,23.31,74156.0,9.45,-8.75,-10.05,0,*4A
1530979244.61,15859,23.31,74158.8,9.47,-8.55,-9.89,0,*77
1530979245.82,15860,23.38,74160.3,9.47,-8.41,-9.53,0,*7F
1530979247.02,15861,23.31,74156.5,9.47,-8.97,-10.31,0,*49
1530979248.25,15862,23.31,74156.3,9.47,-9.11,-10.35,0,*41
1530979249.44,15863,23.38,74158.8,9.47,-8.97,-10.23,0,*48
1530979250.67,15864,23.31,74156.3,9.47,-9.11,-10.19,0,*49
1530979251.89,15865,23.31,74156.3,9.47,-8.81,-10.05,0,*4D
1530979253.15,15866,23.31,74156.8,9.45,-9.57,-10.79,0,*4D
1530979254.41,15867,23.38,74156.3,9.45,-9.15,-10.27,0,*41
1530979255.67,15868,23.31,74158.5,9.45,-9.23,-10.41,0,*4B
1530979256.93,15869,23.31,74158.8,9.45,-9.11,-10.27,0,*4B
1530979258.18,15870,23.38,74158.8,9.45,-9.11,-10.23,0,*47
1530979259.41,15871,23.31,74158.5,9.45,-9.23,-10.35,0,*40
1530979260.65,15872,23.31,74156.0,9.41,-9.01,-10.27,0,*44
1530979261.87,15873,23.31,74156.8,9.41,-8.55,-9.75,0,*7A
1530979263.07,15874,23.31,74154.8,9.43,-8.89,-10.09,0,*4D
1530979264.28,15875,23.38,74156.3,9.43,-8.89,-10.05,0,*40
1530979265.47,15876,23.38,74158.3,9.43,-8.63,-9.93,0,*70
1530979266.67,15877,23.38,74160.0,9.43,-9.27,-10.49,0,*4F
1530979267.9,15878,23.31,74158.5,9.43,-9.11,-10.23,0,*49
1530979269.1,15879,23.31,74158.0,9.43,-8.85,-9.93,0,*77
1530979270.3,15880,23.31,74156.3,9.43,-8.75,-10.05,0,*49
1530979271.5,15881,23.38,74160.8,9.43,-8.75,-9.93,0,*7F
1530979272.74,15882,23.31,74158.8,9.41,-8.81,-9.97,0,*71
1530979273.93,15883,23.31,74160.8,9.43,-8.45,-9.67,0,*75
1530979275.15,15884,23.31,74162.8,9.43,-8.41,-9.57,0,*75
1530979276.34,15885,23.31,74160.3,9.43,-8.63,-9.79,0,*78
1530979277.56,15886,23.31,74158.8,9.45,-8.63,-9.71,0,*75
1530979278.81,15887,23.38,74162.5,9.45,-8.51,-9.67,0,*72
1530979280.03,15888,23.31,74156.8,9.45,-8.97,-10.09,0,*47
1530979281.25,15889,23.38,74158.5,9.45,-8.71,-9.97,0,*71
1530979282.44,15890,23.31,74154.3,9.47,-8.59,-9.75,0,*7D
1530979283.66,15891,23.31,74156.0,9.45,-8.75,-9.97,0,*7C
1530979284.88,15892,23.31,74154.3,9.45,-8.97,-10.09,0,*4C
1530979286.13,15893,23.31,74154.8,9.45,-9.11,-10.23,0,*4A
1530979287.33,15894,23.31,74154.8,9.47,-8.93,-10.05,0,*40
1530979288.55,15895,23.38,74156.8,9.45,-8.97,-10.05,0,*47
1530979289.81,15896,23.31,74154.3,9.45,-9.11,-10.19,0,*46
1530979291.02,15897,23.31,74156.5,9.47,-8.81,-9.89,0,*7C
1530979292.26,15898,23.31,74156.8,9.45,-8.75,-9.83,0,*70
1530979293.48,15899,23.31,74156.0,9.45,-8.85,-9.97,0,*7B
1530979294.67,15900,23.31,74156.5,9.47,-8.59,-9.75,0,*75
1530979295.9,15901,23.38,74164.0,9.45,-8.89,-10.05,0,*44
1530979297.13,15902,23.31,74156.0,9.45,-8.89,-10.09,0,*4B
1530979298.35,15903,23.31,74160.8,9.45,-8.97,-10.19,0,*44
1530979299.58,15904,23.31,74156.8,9.47,-9.11,-10.19,0,*4E
1530979300.81,15905,23.31,74158.5,9.45,-8.97,-10.19,0,*42
1530979302.07,15906,23.31,74158.0,9.45,-9.11,-10.23,0,*47
1530979303.29,15907,23.31,74156.8,9.45,-8.89,-10.05,0,*42
1530979304.52,15908,23.31,74156.3,9.45,-8.85,-10.05,0,*41
1530979305.74,15909,23.31,74152.8,9.45,-8.71,-9.79,0,*78
1530979306.99,15910,23.38,74162.3,9.45,-8.75,-9.83,0,*71
1530979308.18,15911,23.38,74160.3,9.47,-8.85,-9.93,0,*7C
1530979309.38,15912,23.38,74162.3,9.47,-8.85,-9.93,0,*7F
1530979310.62,15913,23.31,74162.5,9.45,-8.75,-9.83,0,*72
1530979311.84,15914,23.38,74162.0,9.45,-8.85,-9.97,0,*7F
1530979313.1,15915,23.31,74160.0,9.45,-9.11,-10.19,0,*4C
1530979314.33,15916,23.31,74156.3,9.45,-8.85,-9.93,0,*79
1530979315.55,15917,23.31,74158.3,9.45,-8.63,-9.79,0,*74
1530979316.81,15918,23.38,74162.0,9.45,-9.11,-10.19,0,*41
1530979318.05,15919,23.31,74158.8,9.45,-8.75,-9.83,0,*78
1530979319.26,15920,23.31,74160.0,9.47,-8.45,-9.61,0,*7F
1530979320.48,15921,23.31,74158.5,9.45,-8.59,-9.67,0,*77
1530979321.66,15922,23.31,74156.3,9.47,-8.67,-9.75,0,*78
1530979322.85,15923,23.38,74160.0,9.47,-8.67,-9.79,0,*75
1530979324.04,15924,23.38,74160.3,9.47,-8.59,-9.75,0,*73
1530979325.25,15925,23.31,74158.8,9.47,-8.41,-9.49,0,*74
1530979326.44,15926,23.38,74162.5,9.47,-8.29,-9.27,0,*71
1530979327.62,15927,23.31,74156.0,9.47,-8.25,-9.23,0,*78
1530979328.85,15928,23.31,74158.5,9.49,-8.29,-9.41,0,*71
1530979330.1,15929,23.31,74156.5,9.49,-8.37,-9.49,0,*77
1530979331.31,15930,23.31,74156.5,9.49,-8.55,-9.67,0,*77
1530979332.53,15931,23.31,74156.5,9.49,-8.71,-9.67,0,*70
1530979333.77,15932,23.31,74158.5,9.49,-8.37,-9.41,0,*75
1530979335.01,15933,23.31,74158.0,9.49,-8.37,-9.41,0,*74
1530979336.25,15934,23.38,74160.0,9.53,-8.25,-9.37,0,*7A
1530979337.47,15935,23.31,74158.0,9.53,-8.55,-9.75,0,*7A
1530979338.68,15936,23.38,74160.0,9.53,-8.67,-9.89,0,*7B
1530979339.91,15937,23.31,74156.3,9.53,-9.01,-10.27,0,*47
1530979341.14,15938,23.31,74158.3,9.53,-9.23,-10.31,0,*4F
1530979342.4,15939,23.31,74156.3,9.49,-9.53,-10.63,0,*45
1530979343.63,15940,23.31,74156.5,9.49,-9.19,-10.45,0,*41
1530979344.87,15941,23.38,74160.3,9.49,-9.49,-10.49,0,*49
1530979346.1,15942,23.31,74158.5,9.49,-9.27,-10.35,0,*49
1530979347.32,15943,23.38,74160.0,9.49,-9.23,-10.35,0,*4C
1530979348.55,15944,23.31,74158.3,9.49,-9.27,-10.35,0,*4F
1530979349.78,15945,23.31,74156.0,9.47,-10.15,-11.29,0,*75
1530979351.03,15946,23.31,74156.0,9.47,-10.71,-11.93,0,*75
1530979352.26,15947,23.31,74158.5,9.45,-10.93,-12.03,0,*70
1530979353.49,15948,23.31,74156.0,9.43,-10.49,-11.59,0,*72
1530979354.73,15949,23.38,74158.5,9.41,-9.45,-10.53,0,*4E
1530979355.98,15950,23.31,74154.8,9.41,-8.81,-10.01,0,*48
1530979357.21,15951,23.31,74154.5,9.41,-8.93,-10.09,0,*42
1530979358.47,15952,23.31,74156.0,9.41,-9.27,-10.41,0,*43
1530979359.7,15953,23.31,74154.3,9.41,-8.93,-10.01,0,*48
1530979360.94,15954,23.31,74156.3,9.41,-8.89,-10.01,0,*44
1530979362.16,15955,23.38,74156.3,9.41,-8.89,-9.97,0,*72
1530979363.38,15956,23.31,74156.0,9.39,-9.31,-10.49,0,*47
1530979364.6,15957,23.31,74150.0,9.41,-9.71,-10.85,0,*4D
1530979365.81,15958,23.38,74154.5,9.41,-9.75,-10.85,0,*46
1530979367.04,15959,23.31,74154.3,9.39,-9.23,-10.35,0,*40
1530979368.26,15960,23.31,74152.3,9.39,-9.19,-10.35,0,*43
1530979369.53,15961,23.31,74150.8,9.39,-9.37,-10.63,0,*4D
1530979370.74,15962,23.31,74152.5,9.37,-9.49,-10.57,0,*4E
1530979371.97,15963,23.31,74152.5,9.39,-8.85,-10.05,0,*47
1530979373.16,15964,23.31,74156.8,9.37,-9.31,-10.45,0,*44
1530979374.36,15965,23.31,74154.3,9.37,-8.93,-10.01,0,*4C
1530979375.6,15966,23.31,74154.5,9.39,-9.37,-10.49,0,*42
1530979376.82,15967,23.31,74154.5,9.39,-8.93,-10.05,0,*44
1530979378.04,15968,23.38,74158.3,9.39,-8.71,-9.89,0,*7B
1530979379.24,15969,23.31,74152.8,9.37,-9.05,-10.19,0,*47
1530979380.46,15970,23.31,74152.5,9.39,-9.19,-10.31,0,*46
1530979381.69,15971,23.31,74152.5,9.39,-9.53,-10.57,0,*49
1530979382.89,15972,23.31,74152.5,9.37,-9.19,-10.27,0,*4D
1530979384.09,15973,23.31,74154.0,9.37,-8.97,-10.01,0,*4F
1530979385.3,15974,23.31,74156.0,9.39,-8.97,-10.05,0,*42
1530979386.52,15975,23.31,74158.0,9.39,-9.19,-10.27,0,*44
1530979387.75,15976,23.31,74158.3,9.39,-9.05,-10.27,0,*4A
1530979388.94,15977,23.31,74156.3,9.37,-9.31,-10.57,0,*45
1530979390.15,15978,23.31,74156.0,9.39,-9.93,-10.97,0,*40
1530979391.34,15979,23.31,74156.0,9.37,-10.05,-11.11,0,*77
1530979392.57,15980,23.31,74158.3,9.37,-9.61,-10.71,0,*4C
1530979393.79,15981,23.31,74158.3,9.37,-9.37,-10.49,0,*45
1530979394.98,15982,23.31,74158.5,9.37,-9.89,-10.97,0,*40
1530979396.22,15983,23.31,74158.5,9.35,-10.53,-11.73,0,*77
1530979397.44,15984,23.31,74158.3,9.33,-10.53,-11.63,0,*77
1530979398.67,15985,23.31,74156.0,9.33,-11.07,-12.21,0,*73
1530979399.92,15986,23.31,74156.0,9.31,-11.07,-12.21,0,*72
1530979401.2,15987,23.31,74156.8,9.23,-10.79,-11.97,0,*76
1530979402.4,15988,23.31,74162.8,9.25,-10.31,-11.45,0,*7C
1530979403.62,15989,23.31,74158.3,9.25,-10.19,-11.33,0,*76
1530979404.87,15990,23.31,74158.5,9.23,-10.19,-11.33,0,*78
1530979406.15,15991,23.31,74158.0,9.23,-10.63,-11.73,0,*70
1530979407.42,15992,23.31,74152.0,9.19,-11.07,-12.15,0,*7A
1530979408.67,15993,23.31,74150.8,9.19,-10.85,-11.89,0,*76
1530979409.92,15994,23.31,74154.8,9.19,-9.75,-10.79,0,*48
1530979411.18,15995,23.31,74154.8,9.19,-9.57,-10.71,0,*41
1530979412.4,15996,23.31,74156.5,9.19,-10.09,-11.19,0,*7E
1530979413.62,15997,23.38,74156.3,9.19,-10.27,-11.41,0,*7E
1530979414.84,15998,23.31,74154.0,9.19,-9.97,-11.11,0,*47
1530979416.1,15999,23.31,74152.5,9.19,-9.57,-10.71,0,*4D
1530979417.33,16000,23.31,74152.3,9.17,-9.75,-10.75,0,*4D
1530979418.55,16001,23.31,74152.0,9.17,-9.75,-10.75,0,*4C
1530979419.74,16002,23.38,74156.0,9.17,-9.89,-10.89,0,*4F
1530979420.97,16003,23.31,74152.8,9.15,-9.23,-10.19,0,*45
1530979422.22,16004,23.31,74152.5,9.17,-9.37,-10.41,0,*48
1530979423.45,16005,23.31,74152.8,9.17,-9.37,-10.53,0,*4A
1530979424.71,16006,23.38,74156.5,9.17,-9.37,-10.41,0,*4A
1530979425.96,16007,23.31,74152.8,9.17,-9.45,-10.41,0,*4E
1530979427.15,16008,23.31,74154.3,9.17,-9.89,-10.89,0,*45
1530979428.38,16009,23.31,74152.0,9.17,-10.19,-11.29,0,*7E
1530979429.58,16010,23.31,74154.5,9.17,-10.01,-11.11,0,*74
1530979430.8,16011,23.31,74154.0,9.17,-10.53,-11.67,0,*73
1530979432.0,16012,23.38,74158.5,9.13,-10.93,-12.03,0,*79
1530979433.26,16013,23.31,74156.8,9.11,-10.97,-12.15,0,*79
1530979434.55,16014,23.31,74154.8,9.11,-10.67,-11.63,0,*73
1530979435.83,16015,23.31,74154.3,9.11,-10.63,-11.67,0,*72
1530979437.08,16016,23.31,74152.8,9.09,-10.71,-11.81,0,*73
1530979438.29,16017,23.31,74158.3,9.09,-10.23,-11.23,0,*7D
1530979439.55,16018,23.31,74156.0,9.05,-10.75,-11.81,0,*75
1530979440.77,16019,23.31,74152.5,9.05,-11.11,-12.25,0,*7A
1530979441.98,16020,23.31,74152.5,9.05,-10.53,-11.41,0,*76
1530979443.2,16021,23.31,74156.0,9.05,-10.01,-11.01,0,*74
1530979444.47,16022,23.38,74156.5,9.05,-10.41,-11.37,0,*76
1530979445.71,16023,23.38,74154.5,9.03,-10.71,-11.73,0,*72
1530979446.96,16024,23.38,74154.5,9.01,-10.23,-11.29,0,*7F
1530979448.22,16025,23.31,74154.8,9.01,-10.49,-11.63,0,*7C
1530979449.5,16026,23.31,74152.0,9.01,-10.71,-11.63,0,*74
1530979450.71,16027,23.31,74154.5,8.99,-10.53,-11.51,0,*74
1530979451.9,16028,23.31,74154.0,8.99,-9.97,-10.97,0,*40
1530979453.12,16029,23.38,74156.5,8.99,-10.41,-11.45,0,*7C
1530979454.34,16030,23.31,74152.0,8.97,-10.49,-11.45,0,*72
1530979455.54,16031,23.31,74152.3,8.99,-9.83,-10.85,0,*4E
1530979456.78,16032,23.31,74154.5,8.99,-9.57,-10.75,0,*4B
1530979457.96,16033,23.31,74154.0,8.99,-9.89,-10.93,0,*41
1530979459.16,16034,23.31,74152.5,8.99,-9.83,-10.85,0,*4B
1530979460.41,16035,23.31,74148.3,8.97,-9.67,-10.67,0,*42
1530979461.63,16036,23.31,74154.0,8.97,-9.19,-10.23,0,*48
1530979462.86,16037,23.38,74152.5,8.99,-9.15,-10.15,0,*4E
1530979464.07,16038,23.31,74150.8,8.99,-9.53,-10.53,0,*41
1530979465.27,16039,23.31,74150.8,8.99,-9.05,-10.09,0,*4C
1530979466.47,16040,23.31,74154.8,8.99,-9.01,-10.15,0,*4B
1530979467.71,16041,23.31,74152.5,8.99,-9.57,-10.67,0,*4C
1530979468.9,16042,23.31,74154.3,8.99,-9.71,-10.85,0,*47
1530979470.12,16043,23.31,74152.8,8.99,-9.41,-10.35,0,*4E
1530979471.31,16044,23.31,74148.3,8.99,-8.97,-9.89,0,*7C
1530979472.49,16045,23.31,74152.5,8.99,-8.75,-9.79,0,*7E
1530979473.68,16046,23.31,74150.0,9.03,-8.97,-10.09,0,*4C
1530979474.9,16047,23.31,74148.5,9.01,-8.97,-10.09,0,*4F
1530979476.12,16048,23.31,74152.0,9.01,-8.97,-10.05,0,*4C
1530979477.34,16049,23.31,74150.8,9.03,-8.93,-9.83,0,*7D
1530979478.55,16050,23.31,74150.3,9.03,-8.67,-9.61,0,*72
1530979479.76,16051,23.31,74152.0,9.03,-8.55,-9.49,0,*78
1530979480.95,16052,23.31,74152.5,9.03,-8.85,-9.79,0,*75
1530979482.17,16053,23.38,74156.3,9.05,-8.93,-10.05,0,*46
1530979483.41,16054,23.31,74156.0,9.05,-9.49,-10.53,0,*44
1530979484.65,16055,23.31,74156.3,9.05,-9.45,-10.57,0,*4D
1530979485.86,16056,23.31,74152.8,9.05,-9.79,-10.85,0,*4E
1530979487.07,16057,23.38,74156.8,9.05,-9.75,-10.85,0,*43
1530979488.26,16058,23.31,74154.5,9.03,-9.67,-10.57,0,*46
1530979489.47,16059,23.31,74154.3,9.03,-9.67,-10.75,0,*47
1530979490.69,16060,23.31,74156.3,9.01,-9.93,-10.89,0,*47
1530979491.94,16061,23.31,74156.3,9.01,-9.37,-10.35,0,*4F
1530979493.17,16062,23.31,74158.3,9.03,-9.37,-10.19,0,*40
1530979494.37,16063,23.31,74156.8,9.03,-9.23,-10.19,0,*44
1530979495.57,16064,23.31,74158.0,9.03,-9.01,-10.09,0,*42
1530979496.79,16065,23.31,74154.5,9.03,-9.15,-10.23,0,*4E
1530979498.02,16066,23.31,74154.5,9.05,-9.57,-10.53,0,*4A
1530979499.24,16067,23.31,74152.8,9.05,-9.19,-10.15,0,*43
1530979500.47,16068,23.31,74152.5,9.05,-9.05,-10.01,0,*44
1530979501.66,16069,23.31,74154.0,9.09,-8.97,-9.93,0,*70
1530979502.86,16070,23.31,74152.8,9.09,-8.85,-9.67,0,*70
1530979504.06,16071,23.31,74152.8,9.09,-9.01,-9.97,0,*73
1530979505.26,16072,23.31,74152.0,9.09,-9.01,-9.97,0,*70
1530979506.48,16073,23.31,74152.5,9.05,-8.89,-9.79,0,*7C
1530979507.68,16074,23.31,74156.8,9.09,-8.85,-9.71,0,*73
1530979508.88,16075,23.31,74154.3,9.09,-9.05,-9.97,0,*73
1530979510.13,16076,23.31,74156.0,9.11,-9.67,-10.67,0,*4A
1530979511.33,16077,23.31,74158.3,9.09,-9.31,-10.27,0,*45
1530979512.54,16078,23.38,74160.3,9.09,-9.27,-10.15,0,*4C
1530979513.74,16079,23.31,74158.0,9.09,-9.01,-9.97,0,*7B
1530979514.94,16080,23.31,74158.0,9.09,-8.85,-9.71,0,*78
1530979516.16,16081,23.31,74154.8,9.13,-8.71,-9.61,0,*78
1530979517.36,16082,23.31,74158.3,9.13,-8.71,-9.67,0,*7D
1530979518.58,16083,23.31,74156.0,9.13,-8.59,-9.49,0,*7A
1530979519.82,16084,23.31,74156.0,9.11,-8.63,-9.45,0,*7A
1530979521.07,16085,23.31,74156.0,9.11,-8.71,-9.57,0,*7B
1530979522.27,16086,23.31,74156.3,9.13,-8.71,-9.67,0,*79
1530979523.48,16087,23.31,74156.0,9.15,-8.75,-9.79,0,*75
1530979524.76,16088,23.38,74158.5,9.15,-9.45,-10.41,0,*4B
1530979525.97,16089,23.31,74156.0,9.13,-9.61,-10.57,0,*4D
1530979527.2,16090,23.31,74152.8,9.13,-9.53,-10.49,0,*4B
1530979528.42,16091,23.31,74156.3,9.11,-9.31,-10.23,0,*40
1530979529.65,16092,23.31,74150.8,9.11,-9.01,-9.97,0,*77
1530979530.87,16093,23.31,74152.0,9.13,-8.89,-9.83,0,*70
1530979532.06,16094,23.31,74152.3,9.13,-8.97,-9.93,0,*79
1530979533.26,16095,23.31,74154.3,9.13,-8.97,-9.71,0,*74
1530979534.5,16096,23.31,74154.8,9.13,-8.81,-9.53,0,*70
1530979535.72,16097,23.31,74156.0,9.13,-8.89,-9.83,0,*74
1530979536.94,16098,23.31,74154.8,9.13,-8.81,-9.71,0,*7E
1530979538.18,16099,23.31,74152.0,9.15,-8.75,-9.45,0,*75
1530979539.41,16100,23.31,74156.8,9.15,-8.75,-9.61,0,*72
1530979540.65,16101,23.31,74154.0,9.15,-8.75,-9.61,0,*73
1530979541.84,16102,23.31,74152.8,9.17,-8.97,-9.89,0,*78
1530979543.05,16103,23.31,74152.0,9.17,-9.23,-10.15,0,*4A
1530979544.27,16104,23.31,74152.5,9.15,-9.05,-9.93,0,*7D
1530979545.51,16105,23.31,74156.3,9.17,-8.81,-9.61,0,*7E
1530979546.72,16106,23.31,74156.3,9.17,-8.75,-9.49,0,*7C
1530979547.94,16107,23.31,74156.3,9.17,-8.67,-9.45,0,*72
1530979549.16,16108,23.31,74154.5,9.17,-8.63,-9.37,0,*7C
1530979550.38,16109,23.31,74154.5,9.17,-8.81,-9.67,0,*74
1530979551.58,16110,23.31,74152.8,9.17,-8.93,-9.79,0,*70
1530979552.79,16111,23.31,74156.0,9.17,-8.75,-9.49,0,*7A
1530979554.0,16112,23.31,74158.8,9.19,-8.59,-9.31,0,*76
1530979555.19,16113,23.31,74154.8,9.21,-8.45,-9.27,0,*76
1530979556.41,16114,23.38,74160.3,9.19,-9.01,-9.89,0,*7F
1530979557.66,16115,23.31,74158.5,9.19,-8.75,-9.53,0,*7B
1530979558.87,16116,23.31,74156.3,9.21,-8.67,-9.37,0,*72
1530979560.12,16117,23.31,74158.0,9.19,-8.63,-9.45,0,*79
1530979561.36,16118,23.31,74154.8,9.23,-8.59,-9.37,0,*73
1530979562.58,16119,23.31,74158.8,9.21,-8.59,-9.37,0,*70
1530979563.79,16120,23.31,74156.3,9.21,-8.59,-9.41,0,*7B
1530979565.01,16121,23.38,74160.3,9.21,-8.67,-9.49,0,*7F
1530979566.25,16122,23.38,74160.0,9.23,-8.55,-9.37,0,*76
1530979567.49,16123,23.31,74156.5,9.23,-8.67,-9.53,0,*74
1530979568.71,16124,23.31,74158.0,9.25,-8.71,-9.53,0,*72
1530979569.96,16125,23.31,74154.0,9.23,-8.71,-9.53,0,*75
1530979571.19,16126,23.31,74156.0,9.23,-8.85,-9.71,0,*7D
1530979572.38,16127,23.31,74156.8,9.25,-8.85,-9.67,0,*7D
1530979573.6,16128,23.31,74160.3,9.23,-9.23,-9.93,0,*72
1530979574.85,16129,23.31,74158.5,9.23,-8.75,-9.53,0,*7D
1530979576.09,16130,23.31,74156.5,9.23,-8.97,-9.83,0,*74
1530979577.31,16131,23.38,74160.3,9.23,-9.27,-10.09,0,*45
1530979578.53,16132,23.31,74160.0,9.23,-9.27,-10.09,0,*46
1530979579.78,16133,23.31,74156.8,9.23,-9.37,-10.09,0,*46
1530979581.03,16134,23.31,74160.0,9.23,-9.37,-10.19,0,*40
1530979582.25,16135,23.31,74158.3,9.23,-8.97,-9.79,0,*74
1530979583.47,16136,23.31,74156.0,9.21,-8.89,-9.57,0,*76
1530979584.69,16137,23.31,74158.8,9.21,-9.11,-9.71,0,*73
1530979585.94,16138,23.31,74156.8,9.23,-9.15,-9.93,0,*76
1530979587.16,16139,23.31,74156.8,9.23,-8.85,-9.71,0,*73
1530979588.38,16140,23.31,74158.3,9.21,-8.75,-9.53,0,*70
1530979589.61,16141,23.31,74156.3,9.21,-8.71,-9.37,0,*77
1530979590.82,16142,23.31,74158.3,9.21,-8.67,-9.49,0,*7A
1530979592.04,16143,23.31,74156.8,9.23,-8.55,-9.23,0,*74
1530979593.23,16144,23.31,74158.0,9.25,-8.55,-9.23,0,*75
1530979594.44,16145,23.31,74156.0,9.25,-8.67,-9.45,0,*75
1530979595.65,16146,23.31,74156.0,9.25,-8.67,-9.37,0,*73
1530979596.87,16147,23.31,74156.5,9.25,-8.67,-9.49,0,*7B
1530979598.09,16148,23.31,74160.3,9.25,-8.85,-9.53,0,*73
1530979599.28,16149,23.31,74160.0,9.25,-8.63,-9.31,0,*7E
1530979600.46,16150,23.31,74158.3,9.25,-8.63,-9.31,0,*76
1530979601.66,16151,23.31,74158.3,9.25,-8.93,-9.67,0,*7B
1530979602.85,16152,23.31,74156.8,9.25,-8.93,-9.75,0,*7B
1530979604.1,16153,23.38,74160.8,9.27,-8.71,-9.49,0,*7B
1530979605.32,16154,23.31,74152.8,9.25,-8.71,-9.37,0,*77
1530979606.56,16155,23.31,74158.3,9.27,-8.67,-9.49,0,*7A
1530979607.8,16156,23.31,74156.3,9.31,-9.49,-10.45,0,*47
1530979609.05,16157,23.38,74158.0,9.27,-9.11,-9.93,0,*7F
1530979610.27,16158,23.31,74156.8,9.27,-8.93,-9.67,0,*70
1530979611.49,16159,23.31,74156.3,9.27,-8.97,-9.67,0,*75
1530979612.73,16160,23.31,74156.0,9.27,-8.71,-9.53,0,*70
1530979613.98,16161,23.31,74158.5,9.27,-8.71,-9.49,0,*7A
1530979615.22,16162,23.31,74156.0,9.27,-8.71,-9.49,0,*79
1530979616.46,16163,23.31,74156.8,9.31,-8.63,-9.41,0,*74
1530979617.7,16164,23.31,74156.3,9.27,-8.81,-9.67,0,*7C
1530979618.92,16165,23.31,74156.0,9.27,-8.93,-9.67,0,*7E
1530979620.14,16166,23.31,74158.0,9.27,-9.19,-9.93,0,*75
1530979621.38,16167,23.31,74156.8,9.31,-8.75,-9.61,0,*75
1530979622.6,16168,23.31,74156.3,9.27,-8.97,-9.79,0,*78
1530979623.82,16169,23.38,74162.0,9.27,-8.93,-9.67,0,*72
1530979625.07,16170,23.31,74158.5,9.27,-9.11,-10.01,0,*49
1530979626.33,16171,23.31,74156.0,9.27,-9.11,-10.01,0,*48
1530979627.55,16172,23.31,74156.8,9.27,-8.93,-9.79,0,*77
1530979628.79,16173,23.31,74154.3,9.27,-8.81,-9.67,0,*7A
1530979630.01,16174,23.31,74152.5,9.31,-9.05,-9.97,0,*78
1530979631.23,16175,23.31,74152.5,9.27,-9.19,-10.05,0,*40
1530979632.45,16176,23.31,74154.0,9.27,-8.85,-9.79,0,*74
1530979633.68,16177,23.31,74156.0,9.27,-9.05,-10.01,0,*4B
1530979634.95,16178,23.31,74156.0,9.27,-9.61,-10.63,0,*42
1530979636.18,16179,23.31,74156.5,9.25,-9.37,-10.27,0,*42
1530979637.4,16180,23.31,74156.3,9.25,-9.49,-10.45,0,*49
1530979638.62,16181,23.31,74162.0,9.23,-9.01,-9.97,0,*75
1530979639.82,16182,23.31,74164.8,9.25,-9.23,-10.27,0,*43
1530979641.04,16183,23.31,74166.5,9.23,-10.05,-11.01,0,*7D
1530979642.26,16184,23.31,74160.8,9.23,-10.09,-10.89,0,*77
1530979643.48,16185,23.31,74160.8,9.21,-9.93,-10.75,0,*4C
1530979644.72,16186,23.31,74160.8,9.19,-9.83,-10.57,0,*45
1530979645.93,16187,23.38,74164.0,9.19,-9.97,-10.53,0,*45
1530979647.18,16188,23.31,74156.5,9.19,-9.41,-9.97,0,*71
1530979648.42,16189,23.31,74160.3,9.19,-9.05,-9.61,0,*79
1530979649.64,16190,23.31,74160.0,9.19,-9.19,-9.75,0,*79
1530979650.88,16191,23.31,74156.3,9.19,-9.19,-9.53,0,*7C
1530979652.1,16192,23.31,74160.3,9.19,-9.01,-9.31,0,*72
1530979653.3,16193,23.38,74160.5,9.21,-9.01,-9.27,0,*7F
1530979654.52,16194,23.31,74158.5,9.19,-8.93,-9.05,0,*79
1530979655.76,16195,23.31,74158.5,9.19,-8.81,-9.01,0,*7F
1530979656.96,16196,23.31,74154.8,9.21,-9.01,-9.01,0,*7E
1530979658.18,16197,23.38,74158.3,9.19,-8.93,-8.89,0,*7F
1530979659.38,16198,23.31,74158.3,9.21,-8.97,-8.85,0,*73
1530979660.56,16199,23.31,74158.5,9.21,-8.97,-8.75,0,*7D
1530979661.76,16200,23.31,74158.3,9.21,-8.85,-8.71,0,*79
1530979662.95,16201,23.31,74162.5,9.21,-8.85,-8.71,0,*78
1530979664.14,16202,23.38,74160.8,9.21,-8.97,-8.89,0,*7F
1530979665.36,16203,23.31,74158.3,9.19,-8.89,-8.75,0,*79
1530979666.57,16204,23.31,74158.3,9.21,-8.81,-8.63,0,*7A
1530979667.76,16205,23.31,74160.0,9.21,-8.75,-8.85,0,*78
1530979668.95,16206,23.31,74162.0,9.21,-9.27,-9.23,0,*70
1530979670.15,16207,23.31,74162.3,9.21,-9.01,-8.97,0,*7B
1530979671.34,16208,23.31,74158.3,9.21,-8.97,-8.97,0,*7A
1530979672.52,16209,23.31,74158.3,9.21,-8.67,-8.71,0,*7C
1530979673.74,16210,23.31,74162.3,9.21,-9.23,-9.37,0,*76
1530979674.96,16211,23.31,74158.0,9.21,-9.01,-9.15,0,*77
1530979676.21,16212,23.31,74156.0,9.21,-9.41,-9.53,0,*72
1530979677.44,16213,23.31,74162.0,9.21,-9.57,-9.57,0,*70
1530979678.63,16214,23.31,74160.5,9.21,-9.97,-9.93,0,*73
1530979679.85,16215,23.31,74160.3,9.19,-10.01,-10.09,0,*75
1530979681.11,16216,23.31,74164.5,9.17,-10.63,-10.63,0,*70
1530979682.33,16217,23.31,74160.0,9.17,-10.53,-10.63,0,*72
1530979683.56,16218,23.31,74160.5,9.15,-10.45,-10.53,0,*7B
1530979684.8,16219,23.31,74162.8,9.15,-10.45,-10.63,0,*79
1530979686.03,16220,23.31,74162.8,9.15,-10.05,-10.19,0,*7A
1530979687.23,16221,23.31,74160.3,9.13,-9.97,-10.19,0,*4E
1530979688.42,16222,23.31,74162.3,9.13,-9.97,-10.19,0,*4D
1530979689.62,16223,23.31,74162.0,9.13,-9.93,-10.23,0,*41
1530979690.85,16224,23.31,74160.5,9.11,-9.71,-10.01,0,*48
1530979692.1,16225,23.31,74158.3,9.11,-10.41,-10.85,0,*7E
1530979693.33,16226,23.31,74160.0,9.13,-10.35,-10.75,0,*73
1530979694.6,16227,23.31,74156.0,9.11,-10.35,-10.67,0,*73
1530979695.82,16228,23.31,74158.0,9.09,-10.23,-10.71,0,*75
1530979697.04,16229,23.31,74156.0,9.05,-9.75,-10.19,0,*4D
1530979698.29,16230,23.31,74156.0,9.05,-10.31,-10.71,0,*73
1530979699.53,16231,23.31,74152.0,9.05,-10.01,-10.41,0,*72
1530979700.78,16232,23.31,74152.0,9.05,-10.31,-10.75,0,*75
1530979701.99,16233,23.31,74154.8,9.03,-9.83,-10.09,0,*48
1530979703.25,16234,23.31,74154.3,9.01,-9.49,-9.53,0,*7C
1530979704.47,16235,23.31,74152.5,9.01,-8.29,-8.21,0,*7E
1530979705.71,16236,23.31,74154.5,8.99,-7.57,-7.91,0,*7F
1530979706.92,16237,23.31,74152.0,8.99,-6.51,-7.69,0,*7E
1530979708.13,16238,23.31,74152.0,8.99,-6.23,-8.37,0,*70
1530979709.33,16239,23.31,74156.5,8.99,-6.63,-9.27,0,*75